Avoca, PA

3:13 PM EST on November 15, 2019 (GMT -0500)
Wilkes-Barre-Scranton International

Weather History for KAVP - July, 2019

Change the Weather History Date:

Thursday, July 25, 2019

  Actual Average Record
Temperature  
Mean Temperature 70 °F 72 °F  
Max Temperature 82 °F 82 °F 96 °F (1941)
Min Temperature 57 °F 61 °F 48 °F (1953)
Degree Days  
Heating Degree Days 0 0  
Month to date heating degree days 0  
Since 1 June heating degree days 54  
Since 1 July heating degree days 0  
Cooling Degree Days 4 7  
Month to date cooling degree days 170  
Year to date cooling degree days 324  
Since 1 June cooling degree days 287  
Growing Degree Days 20 (Base 50)    
Moisture  
Dew Point 56 °F    
Average Humidity 62    
Maximum Humidity 90    
Minimum Humidity 27    
Precipitation  
Precipitation 0.00 in 0.13 in 1.96 in (1914)
Month to date precipitation 3.01  
Year to date precipitation 20.84  
Sea Level Pressure  
Sea Level Pressure 30.14 in    
Wind  
Wind Speed 5 mph (ENE)    
Max Wind Speed 9 mph    
Max Gust Speed -    
Visibility 10 miles    
Events      
T = Trace of Precipitation, MM = Missing Value Source: NWS Daily Summary

Daily Weather History Graph

Daily Weather History Graph

Search for Another Location

Airport or City:

Astronomy

Jul. 25, 2019 Rise Set
Actual Time 5:51 AM EDT 8:27 PM EDT
Civil Twilight 5:19 AM EDT 8:58 PM EDT
Nautical Twilight 4:39 AM EDT 9:38 PM EDT
Astronomical Twilight 3:54 AM EDT 10:23 PM EDT
Moon 12:36 AM EDT (7/25) 2:04 PM EDT (7/25)
Length of Visible Light 15h 39m
Length of Day
14h 36m
Last Quarter, 44% of the Moon is Illuminated
Jul 25
Last Quarter
Jul 31
New
Aug 7
First Quarter
Aug 15
Full
Aug 23
Last Quarter

Hourly Weather History & Observations

Time (EDT) Temp. Heat Index Dew Point Humidity Pressure Visibility Wind Dir Wind Speed Gust Speed Precip Events Conditions
12:54 AM 63.0 °F - 57.0 °F 81% 30.06 in 10.0 mi ESE 5.8 mph - N/A   Clear
1:54 AM 62.1 °F - 57.0 °F 84% 30.07 in 10.0 mi ESE 5.8 mph - N/A   Clear
2:54 AM 61.0 °F - 55.9 °F 83% 30.07 in 10.0 mi ESE 6.9 mph - N/A   Clear
3:54 AM 60.1 °F - 55.9 °F 86% 30.07 in 10.0 mi ESE 4.6 mph - N/A   Clear
4:54 AM 59.0 °F - 55.0 °F 87% 30.09 in 10.0 mi ESE 5.8 mph - N/A   Clear
5:54 AM 57.9 °F - 55.0 °F 90% 30.11 in 9.0 mi ESE 4.6 mph - N/A   Clear
6:54 AM 59.0 °F - 55.0 °F 87% 30.13 in 10.0 mi ESE 4.6 mph - N/A   Clear
7:54 AM 63.0 °F - 57.0 °F 81% 30.14 in 10.0 mi Calm Calm - N/A   Clear
8:54 AM 66.9 °F - 57.9 °F 73% 30.16 in 10.0 mi Calm Calm - N/A   Clear
9:54 AM 70.0 °F - 59.0 °F 68% 30.16 in 10.0 mi West 4.6 mph - N/A   Clear
10:54 AM 73.9 °F - 59.0 °F 59% 30.16 in 10.0 mi West 3.5 mph - N/A   Clear
11:54 AM 77.0 °F - 55.9 °F 48% 30.15 in 10.0 mi NW 6.9 mph - N/A   Scattered Clouds
12:54 PM 79.0 °F - 55.9 °F 45% 30.15 in 10.0 mi NW 8.1 mph - N/A   Clear
1:54 PM 80.1 °F 80.1 °F 55.0 °F 42% 30.14 in 10.0 mi West 9.2 mph - N/A   Clear
2:54 PM 82.0 °F 81.4 °F 55.0 °F 39% 30.14 in 10.0 mi NNW 9.2 mph - N/A   Scattered Clouds
3:54 PM 82.0 °F 81.4 °F 55.0 °F 39% 30.13 in 10.0 mi NNW 8.1 mph - N/A   Mostly Cloudy
4:54 PM 82.0 °F 81.3 °F 54.0 °F 38% 30.13 in 10.0 mi Variable 4.6 mph - N/A   Clear
5:54 PM 81.0 °F 80.5 °F 54.0 °F 39% 30.13 in 10.0 mi WNW 9.2 mph - N/A   Clear
6:54 PM 81.0 °F 80.8 °F 55.9 °F 42% 30.15 in 10.0 mi NNW 6.9 mph - N/A   Clear
7:54 PM 78.1 °F - 57.0 °F 48% 30.16 in 10.0 mi West 3.5 mph - N/A   Clear
8:54 PM 69.1 °F - 60.1 °F 73% 30.17 in 10.0 mi ESE 3.5 mph - N/A   Clear
9:54 PM 69.1 °F - 59.0 °F 70% 30.19 in 10.0 mi ESE 6.9 mph - N/A   Clear
10:54 PM 66.9 °F - 57.0 °F 70% 30.19 in 10.0 mi ESE 5.8 mph - N/A   Clear
11:54 PM 64.9 °F - 57.9 °F 78% 30.20 in 10.0 mi East 6.9 mph - N/A   Clear